Location: Newark
(15.4608°S, 41.1635°W)
Time: 04:23:22
(UTC+00:00)

Vanguard 2 - Visible Passes

Search period start: 04 August 2021 00:00
Search period end: 14 August 2021 00:00
Orbit: 552 x 2937 km, 32.9° (Epoch: 03 August)

Date Brightness Start Highest point End Pass type
(mag) Time Alt. Az. Time Alt. Az. Time Alt. Az.
04 Aug 10.7 00:28:31 10° WSW 00:34:17 28° WSW 00:34:17 28° WSW visible
04 Aug 9.6 22:32:33 10° SW 22:48:10 55° SSE 22:49:53 52° SE visible
05 Aug 10.9 00:46:47 10° WSW 00:51:18 23° WSW 00:51:18 23° WSW visible
05 Aug 10.6 20:35:52 10° WSW 20:52:26 43° S 21:05:06 10° ESE visible
05 Aug 9.4 22:50:44 10° SW 23:06:31 66° SSE 23:06:57 66° SE visible
06 Aug 11.2 01:05:18 10° WSW 01:08:23 18° WSW 01:08:23 18° WSW visible
06 Aug 10.5 20:54:27 10° WSW 21:11:16 47° SSE 21:22:41 14° E visible
06 Aug 9.4 23:08:52 10° WSW 23:24:07 80° S 23:24:07 80° S visible
07 Aug 11.4 01:24:12 10° WSW 01:25:33 13° W 01:25:33 13° W visible
07 Aug 10.2 21:12:49 10° SW 21:29:58 53° SSE 21:39:54 19° E visible
07 Aug 9.5 23:27:05 10° WSW 23:41:21 74° W 23:41:21 74° W visible
08 Aug 10.0 21:31:03 10° SW 21:48:29 62° SSE 21:57:13 24° E visible
08 Aug 9.8 23:45:27 10° WSW 23:58:40 58° WNW 23:58:40 58° WNW visible
09 Aug 9.9 21:49:11 10° WSW 22:06:48 74° SSE 22:14:37 29° ENE visible
10 Aug 10.2 00:04:05 10° WSW 00:16:05 43° WNW 00:16:05 43° WNW visible
10 Aug 9.8 22:07:21 10° WSW 22:24:55 89° SSE 22:32:06 33° ENE visible
11 Aug 10.6 00:23:09 10° WSW 00:33:35 31° WNW 00:33:35 31° WNW visible
11 Aug 9.9 22:25:35 10° WSW 22:42:48 74° NW 22:49:41 33° NE visible
12 Aug 11.0 00:42:56 10° W 00:51:09 22° NW 00:51:09 22° NW visible
12 Aug 10.3 20:29:59 10° SW 20:48:07 68° SSE 21:02:25 10° ENE visible
12 Aug 10.2 22:43:59 10° WSW 23:00:30 58° NW 23:07:21 30° NNE visible
13 Aug 11.3 01:04:09 10° WNW 01:08:50 14° NW 01:08:50 14° NW visible
13 Aug 10.3 20:48:03 10° WSW 21:06:22 81° SSE 21:20:30 10° ENE visible
13 Aug 10.5 23:02:43 10° WSW 23:18:03 44° NW 23:25:04 24° NNE visible
